Terminal Aerodrome Forecast
Issued by NWS Omaha/Valley, NE

Home | Current Version | Previous Version | Graphics & Text | Print | Product List | Glossary On
Versions: 1 2 3 4 5 6 7 8 9 10 11 12 13 14 15 16 17 18 19 20 21 22 23 24 25 26 27 28 29 30 31 32 33 34 35 36 37 38 39 40 41 42 43 44 45
000
FTUS43 KOAX 180306 AAA
TAFOFK
TAF AMD
KOFK 180306Z 1803/1824 12006KT P6SM SCT015 OVC050
     FM180500 13005KT P6SM SCT010 OVC035
      TEMPO 1806/1809 4SM -SN OVC010
     FM180900 12005KT 4SM BR OVC009
      TEMPO 1809/1813 2SM -SN BR OVC006
     FM181700 16005KT P6SM OVC015=

USA.gov is the U.S. government's official web portal to all federal, state and local government web resources and services.